Zurück zum Katalog

STARLINK-32596

AktivKommunikationVLEO
NORAD 62316·PAYLOAD·🇺🇸 United States

Gestartet Dec 13, 2024 von Vandenberg Space Force Base

Loading…

Nächste Überflüge (nächste 24 Stunden)

TLE

AktuellSource: CelesTrak SupGP

Epoche: Sep 15, 2026, 02:12 UTC

1 62316C 24239R   26258.09215278 -.00002319  00000+0 -68516-4 0  2589
2 62316  53.1602  30.6879 0001056  78.8915 197.9061 15.34389854    14

Verfolge STARLINK-32596 in Echtzeit mit AllMySat

Download on the App Store